Regional Weather Roundup
Issued by NWS Sterling, VA

Home | Current Version | Previous Version | Graphics & Text | Print | Product List | Glossary Off
Versions: 1 2 3 4 5 6 7 8 9 10 11 12 13 14 15 16 17 18 19 20 21 22 23 24 25 26 27 28 29 30 31 32 33 34 35 36 37 38 39 40 41 42 43 44 45 46 47 48 49 50

000
ASUS41 KLWX 270910
RWRLWX

REGIONAL WEATHER ROUNDUP
NATIONAL WEATHER SERVICE BALTIMORE MD/WASHINGTON DC
400 AM EST THU NOV 27 2014

Note: "FAIR" indicates few or no clouds below 12,000 feet
with no significant weather and/or obstructions to visibility.
 TC=TEMPERATURE CELSIUS

 * =Non NWS site. Station does not report precipitation (e.g. rain,
    snow, etc.), thunder, or fog.

DCZ001-MDZ009-015-VAZ040>042-051-053>054-271000-
WASHINGTON METRO

CITY           SKY/WX    TMP DP  RH WIND       PRES   REMARKS
WASHINGTON NAT CLOUDY    39  31  72 CALM      30.03S
DULLES         CLOUDY    33  33 100 CALM      30.02S
ANDREWS AFB    CLOUDY    35  32  87 NW3       30.00S
FT BELVOIR     CLOUDY    32  32 100 CALM      30.03S FOG
QUANTICO       CLOUDY    35  32  88 W3        30.04S
COLLEGE PARK*  CLOUDY    36  32  87 CALM      30.01F
LEESBURG*      CLOUDY    34  34 100 W3        30.01F
MANASSAS*      CLOUDY    34  34 100 CALM      30.03R
GAITHERSBURG*  MOCLDY    32  28  86 CALM      30.03F

$$

MDZ006>007-011-014-271000-
BALTIMORE METRO

CITY           SKY/WX    TMP DP  RH WIND       PRES   REMARKS
BWI AIRPORT    MOCLDY    34  32  92 W6        30.00S
MD SCIENCE CTR   N/A     35  32  88 MISG      30.00F
MARTIN STATE   PTCLDY    36  32  87 CALM      30.01F
ANNAPOLIS        N/A     35  32  88 W3        30.01S
FORT MEADE*    PTCLDY    32  32 100 CALM      30.03S

$$

MDZ012-015-019>023-271000-
MARYLAND EASTERN SHORE

CITY           SKY/WX    TMP DP  RH WIND       PRES   REMARKS
OCEAN CITY     PTCLDY    37  34  89 NW6       29.99F
SALISBURY      PTCLDY    39  33  79 W5        30.00F
BAY BRIDGE AP*   N/A     36  32  87 NW7       30.01F
CAMBRIDGE*     MOCLDY    37  34  87 W3        30.01R
EASTON*        PTCLDY    37  37 100 NW6       30.03F

$$

MDZ017>025-271000-
SOUTHERN MARYLAND

CITY           SKY/WX    TMP DP  RH WIND       PRES   REMARKS
PATUXENT RIVER MOCLDY    36  33  89 W5        30.03R
ST INIGOES     MOCLDY    38  32  79 W6        30.03S
LEONARDTOWN*   CLOUDY    34  32  93 CALM      30.04S

$$

MDZ003>005-271000-
NORTH CENTRAL MARYLAND

CITY           SKY/WX    TMP DP  RH WIND       PRES   REMARKS
FREDERICK*     CLOUDY    34  30  86 CALM      30.03F FOG
HAGERSTOWN APT CLOUDY    33  30  88 CALM      29.99S
WESTMINSTER*   MOCLDY    30  28  93 N5        29.96F

$$

MDZ501>502-271000-
WESTERN MARYLAND

CITY           SKY/WX    TMP DP  RH WIND       PRES   REMARKS
OAKLAND*       FOG       28 N/A N/A CALM      29.91S VSB 1
CUMBERLAND*    CLOUDY    32  32 100 MISG      30.04S VSB 1

$$

VAZ025>031-271000-
SHENANDOAH VALLEY

CITY           SKY/WX    TMP DP  RH WIND       PRES   REMARKS
WINCHESTER*    FOG       32  30  93 CALM      30.00S VSB 1/4
FRONT ROYAL*   CLOUDY    32  32 100 S5        29.99F
LURAY*         FOG       32  32 100 CALM      30.00S VSB 1/4
NEW MARKET*    CLOUDY    29  29  99 SW5       29.99F VSB 1/4
STAUNTON*      FOG       28  26  94 CALM      30.01S VSB<1/4
WAYNESBORO*    CLOUDY    28  28  99 CALM      29.97F

$$

WVZ021-048>050-054>055-271000-
EASTERN WEST VIRGINIA PANHANDLE

CITY           SKY/WX    TMP DP  RH WIND       PRES   REMARKS
MARTINSBURG    CLOUDY    35  31  85 W3        30.00F FOG
PETERSBURG*    FOG       32  31  97 CALM      30.00S VSB 1/2

$$

VAZ036>039-050-271000-
CENTRAL FOOTHILLS

CITY           SKY/WX    TMP DP  RH WIND       PRES   REMARKS
CHARLOTTESVILL CLOUDY    34  33  96 W3        30.00S FOG
CULPEPER*      CLOUDY    34  34 100 CALM      30.03S FOG
ORANGE*        FOG       34  34 100 CALM      30.03S VSB 3/4
GORDONSVILLE*  FOG       32  31  99 CALM      30.01S VSB 1/4
WARRENTON*     CLOUDY    33  33 100 CALM      30.01S FOG

$$

VAZ055>057-271000-
NORTH AND CENTRAL PIEDMONT

CITY           SKY/WX    TMP DP  RH WIND       PRES   REMARKS
FREDERICKSBRG* CLOUDY    36  36 100 CALM      30.03F
STAFFORD*      FOG       32  32 100 CALM      30.07S VSB 1/2

$$

NCZ024-NYZ072-PAZ021-071-VAZ022-071-271000-
OTHER REGIONAL OBSERVATIONS

CITY           SKY/WX    TMP DP  RH WIND       PRES   REMARKS
NEW YORK CITY  CLOUDY    36  30  79 NW7       29.94R
PHILADELPHIA   CLOUDY    37  31  78 W9        29.99R
PITTSBURGH     CLOUDY    32  31  96 W3        29.99S FOG
ROANOKE        CLOUDY    36  34  92 NE6       30.00F
RICHMOND       CLOUDY    39  37  93 CALM      30.04F
RALEIGH        MOCLDY    41  38  89 SE7       30.03F

$$

ANZ530>537-271000-
MARINE OBSERVATIONS

STATION/POSITION TIME  TEMP    WIND        PRES
                       AIR SEA DIR/SP/G
                 (UTC) (F)     (DEG/KT/KT) (MB)
THOMAS PT LIGHT  0900   37 47  300/  8/ 10 1017.4F
BALT KEY BRIDGE  0900   36     250/  8/  9 1015.9F
COVE POINT       0900   37     300/  9/ 12 1016.6R
LEWISETTA        0900   38 48  280/  6/  8 1016.8F
SOLOMONS ISLAND  0900      49                N/A
PINEY POINT      0900          330/ 16/ 18   N/A

$$



USA.gov is the U.S. government's official web portal to all federal, state and local government web resources and services.